When you browse on this site, cookies collect data to enhance your experience and personalize the content and advertising you see.
Visit our Privacy Policy to learn more. By continuing to use the site, you agree to this use of cookies and data.
  • In Österreich
  • Länderverzeichnis
  • Für 7 Tage
  • Wassertemperatur
  • Wetterkarte
  • News
  • Widgets
  • user-avatar
    Anmelden

    Stündliche Wetter Mokraya Niva

    Heute, 7 Juni, Sonntag

    Zeit Temperatur Niederschläge Wind Luftdruck Luftfeuchtigkeit
    00:00 +14°C° 0 mm 1 m/S 743 mmHg 94%
    01:00 +14°C° 0 mm 1 m/S 744 mmHg 94%
    02:00 +13°C° 0 mm 1 m/S 744 mmHg 95%
    03:00 +13°C° 0 mm 0 m/S 744 mmHg 94%
    04:00 +13°C° 0 mm 0 m/S 745 mmHg 93%
    05:00 +14°C° 0 mm 0 m/S 745 mmHg 92%
    06:00 +16°C° 0 mm 0 m/S 745 mmHg 87%
    07:00 +20°C° 0 mm 1 m/S 746 mmHg 81%
    08:00 +21°C° 0 mm 1 m/S 746 mmHg 76%
    09:00 +23°C° 0 mm 1 m/S 746 mmHg 67%
    10:00 +24°C° 0 mm 1 m/S 746 mmHg 59%
    11:00 +26°C° 0 mm 2 m/S 746 mmHg 51%
    12:00 +26°C° 0 mm 2 m/S 746 mmHg 50%
    13:00 +27°C° 0 mm 2 m/S 746 mmHg 49%
    14:00 +27°C° 0 mm 2 m/S 746 mmHg 48%
    15:00 +27°C° 0 mm 2 m/S 746 mmHg 52%
    16:00 +27°C° 0 mm 2 m/S 746 mmHg 56%
    17:00 +26°C° 0 mm 3 m/S 745 mmHg 60%
    18:00 +24°C° 0 mm 2 m/S 745 mmHg 68%
    19:00 +23°C° 0 mm 2 m/S 745 mmHg 75%
    20:00 +20°C° 0 mm 2 m/S 745 mmHg 82%
    21:00 +19°C° 0 mm 2 m/S 745 mmHg 85%
    22:00 +19°C° 0 mm 2 m/S 745 mmHg 87%
    23:00 +18°C° 0 mm 2 m/S 745 mmHg 90%

    Morgen, 8 Juni, Montag

    Zeit Temperatur Niederschläge Wind Luftdruck Luftfeuchtigkeit
    00:00 +18°C° 0 mm 2 m/S 745 mmHg 90%
    01:00 +17°C° 0 mm 2 m/S 745 mmHg 91%
    02:00 +17°C° 0 mm 2 m/S 745 mmHg 91%
    03:00 +17°C° 0 mm 2 m/S 745 mmHg 91%
    04:00 +18°C° 0 mm 2 m/S 745 mmHg 92%
    05:00 +18°C° 0 mm 2 m/S 745 mmHg 92%
    06:00 +20°C° 0 mm 2 m/S 745 mmHg 87%
    07:00 +23°C° 0 mm 2 m/S 745 mmHg 81%
    08:00 +24°C° 0 mm 2 m/S 745 mmHg 76%
    09:00 +25°C° 0 mm 3 m/S 745 mmHg 70%
    10:00 +27°C° 0 mm 3 m/S 746 mmHg 64%
    11:00 +28°C° 0 mm 4 m/S 746 mmHg 58%
    12:00 +28°C° 0 mm 4 m/S 746 mmHg 57%
    13:00 +29°C° 0 mm 4 m/S 745 mmHg 55%
    14:00 +29°C° 0 mm 4 m/S 745 mmHg 53%
    15:00 +29°C° 0 mm 3 m/S 745 mmHg 56%
    16:00 +28°C° 0 mm 3 m/S 745 mmHg 59%
    17:00 +28°C° 0 mm 3 m/S 745 mmHg 61%
    18:00 +26°C° 0 mm 2 m/S 745 mmHg 70%
    19:00 +24°C° 0 mm 2 m/S 745 mmHg 78%
    20:00 +21°C° 0 mm 2 m/S 745 mmHg 87%
    21:00 +20°C° 0 mm 2 m/S 745 mmHg 89%
    22:00 +20°C° 0 mm 2 m/S 745 mmHg 92%
    23:00 +20°C° 0 mm 1 m/S 745 mmHg 94%

    übermorgen, 9 Juni, Dienstag

    Zeit Temperatur Niederschläge Wind Luftdruck Luftfeuchtigkeit
    00:00 +19°C° 0 mm 1 m/S 745 mmHg 95%
    01:00 +19°C° 0 mm 1 m/S 745 mmHg 95%
    02:00 +19°C° 0 mm 1 m/S 745 mmHg 96%
    03:00 +19°C° 0 mm 1 m/S 746 mmHg 95%
    04:00 +19°C° 0 mm 1 m/S 746 mmHg 94%
    05:00 +20°C° 0 mm 1 m/S 746 mmHg 93%
    06:00 +20°C° 0 mm 2 m/S 746 mmHg 87%
    07:00 +23°C° 0 mm 2 m/S 746 mmHg 81%
    08:00 +25°C° 0 mm 2 m/S 746 mmHg 74%
    09:00 +26°C° 0 mm 2 m/S 746 mmHg 69%
    10:00 +27°C° 0 mm 3 m/S 746 mmHg 63%
    11:00 +29°C° 0 mm 3 m/S 747 mmHg 58%
    12:00 +29°C° 0.2 mm 3 m/S 746 mmHg 58%
    13:00 +29°C° 0.2 mm 3 m/S 746 mmHg 59%
    14:00 +29°C° 0.2 mm 3 m/S 746 mmHg 60%
    15:00 +29°C° 0.1 mm 2 m/S 746 mmHg 59%
    16:00 +29°C° 0.1 mm 2 m/S 746 mmHg 59%
    17:00 +29°C° 0.1 mm 2 m/S 746 mmHg 59%
    18:00 +27°C° 0 mm 1 m/S 746 mmHg 67%
    19:00 +25°C° 0 mm 1 m/S 746 mmHg 74%
    20:00 +23°C° 0 mm 1 m/S 746 mmHg 82%
    21:00 +22°C° 0 mm 1 m/S 746 mmHg 84%
    22:00 +21°C° 0 mm 1 m/S 746 mmHg 87%
    23:00 +20°C° 0 mm 1 m/S 746 mmHg 89%

    10 Juni, Mittwoch

    Zeit Temperatur Niederschläge Wind Luftdruck Luftfeuchtigkeit
    00:00 +20°C° 0 mm 1 m/S 746 mmHg 91%
    01:00 +20°C° 0 mm 1 m/S 746 mmHg 93%
    02:00 +19°C° 0 mm 1 m/S 746 mmHg 94%
    03:00 +20°C° 0 mm 1 m/S 746 mmHg 93%
    04:00 +20°C° 0 mm 1 m/S 746 mmHg 92%
    05:00 +20°C° 0 mm 1 m/S 746 mmHg 92%
    06:00 +22°C° 0 mm 1 m/S 747 mmHg 84%
    07:00 +24°C° 0 mm 1 m/S 747 mmHg 77%
    08:00 +26°C° 0 mm 1 m/S 747 mmHg 69%
    09:00 +27°C° 0 mm 2 m/S 747 mmHg 64%
    10:00 +29°C° 0 mm 2 m/S 747 mmHg 58%
    11:00 +30°C° 0 mm 2 m/S 746 mmHg 53%
    12:00 +30°C° 0 mm 3 m/S 746 mmHg 51%
    13:00 +30°C° 0 mm 3 m/S 746 mmHg 49%
    14:00 +31°C° 0 mm 3 m/S 746 mmHg 47%
    15:00 +30°C° 0 mm 3 m/S 746 mmHg 51%
    16:00 +30°C° 0 mm 2 m/S 745 mmHg 54%
    17:00 +30°C° 0 mm 2 m/S 745 mmHg 57%
    18:00 +28°C° 0 mm 2 m/S 745 mmHg 66%
    19:00 +26°C° 0 mm 2 m/S 745 mmHg 74%
    20:00 +24°C° 0 mm 1 m/S 746 mmHg 82%
    21:00 +23°C° 0 mm 2 m/S 746 mmHg 85%
    22:00 +21°C° 0 mm 2 m/S 746 mmHg 87%
    23:00 +20°C° 0 mm 2 m/S 746 mmHg 89%

    11 Juni, Donnerstag

    Zeit Temperatur Niederschläge Wind Luftdruck Luftfeuchtigkeit
    00:00 +20°C° 0 mm 2 m/S 746 mmHg 91%
    01:00 +19°C° 0 mm 2 m/S 746 mmHg 93%
    02:00 +19°C° 0 mm 2 m/S 746 mmHg 94%
    03:00 +19°C° 0 mm 2 m/S 746 mmHg 94%
    04:00 +20°C° 0 mm 2 m/S 746 mmHg 93%
    05:00 +20°C° 0 mm 2 m/S 746 mmHg 92%
    06:00 +23°C° 0 mm 2 m/S 746 mmHg 85%
    07:00 +25°C° 0 mm 2 m/S 746 mmHg 78%
    08:00 +27°C° 0 mm 2 m/S 746 mmHg 72%
    09:00 +28°C° 0 mm 2 m/S 746 mmHg 66%
    10:00 +29°C° 0 mm 2 m/S 746 mmHg 61%
    11:00 +30°C° 0 mm 3 m/S 746 mmHg 56%
    12:00 +30°C° 0.1 mm 3 m/S 746 mmHg 55%
    13:00 +30°C° 0.1 mm 3 m/S 745 mmHg 54%
    14:00 +31°C° 0.1 mm 3 m/S 745 mmHg 54%
    15:00 +30°C° 0 mm 2 m/S 745 mmHg 55%
    16:00 +30°C° 0 mm 2 m/S 745 mmHg 57%
    17:00 +30°C° 0 mm 2 m/S 745 mmHg 58%
    18:00 +28°C° 0 mm 1 m/S 745 mmHg 66%
    19:00 +26°C° 0 mm 1 m/S 745 mmHg 74%
    20:00 +24°C° 0 mm 1 m/S 745 mmHg 82%
    21:00 +24°C° 0.4 mm 1 m/S 745 mmHg 85%
    22:00 +23°C° 0.4 mm 1 m/S 745 mmHg 89%
    23:00 +22°C° 0.4 mm 1 m/S 745 mmHg 92%

    12 Juni, Freitag

    Zeit Temperatur Niederschläge Wind Luftdruck Luftfeuchtigkeit
    00:00 +21°C° 0.1 mm 1 m/S 744 mmHg 93%
    01:00 +21°C° 0.1 mm 1 m/S 744 mmHg 94%
    02:00 +21°C° 0.1 mm 1 m/S 744 mmHg 96%
    03:00 +21°C° 0 mm 1 m/S 744 mmHg 95%
    04:00 +21°C° 0 mm 1 m/S 744 mmHg 95%
    05:00 +22°C° 0 mm 1 m/S 744 mmHg 95%
    06:00 +23°C° 0 mm 1 m/S 744 mmHg 88%
    07:00 +25°C° 0 mm 1 m/S 744 mmHg 82%
    08:00 +27°C° 0 mm 1 m/S 744 mmHg 76%
    09:00 +28°C° 0.2 mm 1 m/S 744 mmHg 68%
    10:00 +29°C° 0.2 mm 1 m/S 744 mmHg 61%
    11:00 +31°C° 0.2 mm 1 m/S 744 mmHg 53%
    12:00 +31°C° 0.2 mm 2 m/S 744 mmHg 52%
    13:00 +31°C° 0.2 mm 2 m/S 744 mmHg 50%
    14:00 +31°C° 0.2 mm 2 m/S 744 mmHg 48%
    15:00 +31°C° 0 mm 1 m/S 744 mmHg 51%
    16:00 +30°C° 0 mm 1 m/S 743 mmHg 54%
    17:00 +30°C° 0 mm 1 m/S 743 mmHg 57%
    18:00 +28°C° 0.2 mm 1 m/S 743 mmHg 65%
    19:00 +26°C° 0.2 mm 1 m/S 743 mmHg 74%
    20:00 +24°C° 0.2 mm 1 m/S 743 mmHg 83%
    21:00 +23°C° 0.1 mm 1 m/S 743 mmHg 87%
    22:00 +22°C° 0.1 mm 1 m/S 743 mmHg 90%
    23:00 +21°C° 0.1 mm 1 m/S 744 mmHg 93%
    Mehr zeigen